Location: Bailleul
(50.3375°N, 2.8513°E)
Time: 20:21:23
(UTC+00:00)

S3M - Pass Details

Date: 19 April 2021
Orbit: 949 x 1004 km, 83.0° (Epoch: 16 May)

Event Time Altitude Azimuth Distance (km) Brightness Sun altitude
Exits shadow 22:34:14 63° 161° (SSE) 1,114 3.9 -26.1°
Maximum altitude 22:35:16 78° 96° (E) 1,031 3.9 -26.2°
Drops below altitude 10° 22:41:41 10° 12° (NNE) 2,791 7.1 -26.5°
Sets 22:44:14 0° 11° (N) 3,743 8.0 -26.6°
